Home   Weather   Murau   Past weeks

Flag for Austria Past Weather in Murau, Styria, Austria — Yesterday and Last 2 Weeks

Now
15 °F

Cold.


Feels Like: 15 °F
Forecast: 5 / 26 °F
Wind: 1 mph from Northwest

Location: Aigen Im Ennstal

Current Time: Jan 17, 2017 at 3:48:51 am

Latest Report: Jan 17, 2017 at 3:00 am


Visibility: N/A

Pressure: 30.43 "Hg (27.26 "Hg at 848m altitude)

Humidity: 87%

Dew Point: 11 °F

Location of MurauLocation

Past Weather in Murau — Graph

°F

Murau Temperature Yesterday

Maximum temperature yesterday: 21 °F (at 3:00 pm)
Minimum temperature yesterday: 6 °F (at 8:00 am)
Average temperature yesterday: 16 °F

High & Low Weather Summary for the Past Weeks

 TemperatureHumidityPressure
High40 °F (Jan 12, 1:00 pm)95% (Jan 12, 8:00 pm)30.80 "Hg (Jan 12, 8:00 pm)
Low2 °F (Jan 7, 9:00 am)49% (Jan 3, 2:00 pm)29.57 "Hg (Jan 13, 6:00 am)
Average25 °F74%30.19 "Hg
* Reported Jan 2 2:00 am — Jan 17 2:00 am, Murau, Weather by CustomWeather, © 2017

Note: Actual official high and low records may vary slightly from our data, if they occured in-between our weather recording intervals... More about our weather records

Advertising

Murau Weather History for the Previous 24 Hours

Scroll right to see more
 ConditionsComfort  
Time TempWeatherWind HumidityBarometerVisibility
2:00 am
Tue, Jan 17
14 °FCold.1 mph88%30.42 "HgN/A
1:00 am17 °FSnow flurries. Overcast.1 mph88%30.39 "Hg6 mi
12:00 am18 °FFog.1 mph87%30.38 "HgN/A
11:00 pm
Mon, Jan 16
18 °FFog.1 mph87%30.37 "HgN/A
10:00 pm18 °FSnow flurries. Overcast.2 mph87%30.37 "Hg6 mi
9:00 pm18 °FCold.1 mph88%30.34 "HgN/A
8:00 pm18 °FFog.1 mph87%30.34 "HgN/A
7:00 pm19 °FSnow flurries. Overcast.No wind86%30.32 "Hg6 mi
6:00 pm18 °FCold.1 mph84%30.31 "HgN/A
5:00 pm20 °FCold.1 mph82%30.28 "HgN/A
4:00 pm21 °FSnow flurries. Overcast.No wind80%30.27 "Hg9 mi
3:00 pm21 °FCold.1 mph77%30.25 "HgN/A
2:00 pm20 °FCold.No wind75%30.25 "HgN/A
1:00 pm18 °FPartly sunny.1 mph79%30.27 "Hg12 mi
12:00 pm17 °FCold.No wind84%30.29 "HgN/A
11:00 am14 °FCold.1 mph85%30.32 "HgN/A
10:00 am11 °FLight mixture of precip. Partly sunny.1 mph86%30.34 "Hg12 mi
9:00 am10 °FCold.1 mph86%30.34 "HgN/A
8:00 am6 °FFrigid.No wind83%30.35 "HgN/A
7:00 am8 °FPassing clouds.1 mph87%30.33 "Hg9 mi
6:00 am11 °FCold.1 mph87%30.30 "HgN/A
5:00 am10 °FFrigid.1 mph84%30.30 "HgN/A
4:00 am13 °FPassing clouds.No wind86%30.29 "Hg9 mi
3:00 am13 °FCold.1 mph87%30.29 "HgN/A
Weather by CustomWeather, © 2017

See weather overviewHow to use our weather pages